Time,TemperatureF,DewpointF,PressureIn,WindDirection,WindDirectionDegrees,WindSpeedMPH,WindSpeedGustMPH,Humidity,HourlyPrecipIn,Conditions,Clouds,dailyrainin,SolarRadiationWatts/m^2,SoftwareType,DateUTC
2013-01-10 00:22:00,28.0,26.0,-100.00,West,279,7.0,24.0,92,0.00,,,0.02,45.000000,,2013-01-10 00:22:00,
2013-01-10 00:32:00,28.0,26.0,-100.00,West,279,7.0,24.0,92,0.00,,,0.02,45.000000,,2013-01-10 00:32:00,
2013-01-10 00:42:00,28.0,26.0,-100.00,West,279,7.0,24.0,92,0.00,,,0.02,45.000000,,2013-01-10 00:42:00,
2013-01-10 00:52:00,28.0,26.0,-100.00,West,279,7.0,24.0,92,0.00,,,0.02,45.000000,,2013-01-10 00:52:00,
2013-01-10 01:22:00,27.0,23.0,-100.00,WNW,290,5.0,12.0,86,0.00,,,0.02,16.000000,,2013-01-10 01:22:00,
2013-01-10 01:32:00,27.0,23.0,-100.00,WNW,290,5.0,12.0,86,0.00,,,0.02,16.000000,,2013-01-10 01:32:00,
2013-01-10 01:42:00,27.0,23.0,-100.00,WNW,290,5.0,12.0,86,0.00,,,0.02,16.000000,,2013-01-10 01:42:00,
2013-01-10 01:52:00,27.0,23.0,-100.00,WNW,290,5.0,12.0,86,0.00,,,0.02,16.000000,,2013-01-10 01:52:00,
2013-01-10 02:22:00,27.0,21.0,-100.00,West,276,4.0,13.0,78,0.00,,,0.02,1.000000,,2013-01-10 02:22:00,
2013-01-10 02:32:00,27.0,21.0,-100.00,West,276,4.0,13.0,78,0.00,,,0.02,1.000000,,2013-01-10 02:32:00,
2013-01-10 02:42:00,27.0,21.0,-100.00,West,276,4.0,13.0,78,0.00,,,0.02,1.000000,,2013-01-10 02:42:00,
2013-01-10 02:52:00,27.0,21.0,-100.00,West,276,4.0,13.0,78,0.00,,,0.02,1.000000,,2013-01-10 02:52:00,
2013-01-10 03:22:00,26.0,21.0,-100.00,WNW,301,7.0,12.0,80,0.00,,,0.02,1.000000,,2013-01-10 03:22:00,
2013-01-10 03:32:00,26.0,21.0,-100.00,WNW,301,7.0,12.0,80,0.00,,,0.02,1.000000,,2013-01-10 03:32:00,
2013-01-10 03:42:00,26.0,21.0,-100.00,WNW,301,7.0,12.0,80,0.00,,,0.02,1.000000,,2013-01-10 03:42:00,
2013-01-10 03:52:00,26.0,21.0,-100.00,WNW,301,7.0,12.0,80,0.00,,,0.02,1.000000,,2013-01-10 03:52:00,
2013-01-10 04:22:00,25.0,18.0,-100.00,WNW,283,10.0,16.0,73,0.00,,,0.02,1.000000,,2013-01-10 04:22:00,
2013-01-10 04:32:00,25.0,18.0,-100.00,WNW,283,10.0,16.0,73,0.00,,,0.02,1.000000,,2013-01-10 04:32:00,
2013-01-10 04:42:00,25.0,18.0,-100.00,WNW,283,10.0,16.0,73,0.00,,,0.02,1.000000,,2013-01-10 04:42:00,
2013-01-10 04:52:00,25.0,18.0,-100.00,WNW,283,10.0,16.0,73,0.00,,,0.02,1.000000,,2013-01-10 04:52:00,
2013-01-10 05:22:00,24.0,16.0,-100.00,West,273,6.0,15.0,72,0.00,,,0.02,1.000000,,2013-01-10 05:22:00,
2013-01-10 05:33:00,24.0,16.0,-100.00,West,273,6.0,15.0,72,0.00,,,0.02,1.000000,,2013-01-10 05:33:00,
2013-01-10 05:42:00,24.0,16.0,-100.00,West,273,6.0,15.0,72,0.00,,,0.02,1.000000,,2013-01-10 05:42:00,
2013-01-10 05:52:00,24.0,16.0,-100.00,West,273,6.0,15.0,72,0.00,,,0.02,1.000000,,2013-01-10 05:52:00,
2013-01-10 06:22:00,23.0,17.0,-100.00,West,263,9.0,15.0,79,0.00,,,0.02,1.000000,,2013-01-10 06:22:00,
2013-01-10 06:32:00,23.0,17.0,-100.00,West,263,9.0,15.0,79,0.00,,,0.02,1.000000,,2013-01-10 06:32:00,
2013-01-10 06:42:00,23.0,17.0,-100.00,West,263,9.0,15.0,79,0.00,,,0.02,1.000000,,2013-01-10 06:42:00,
2013-01-10 06:52:00,23.0,17.0,-100.00,West,263,9.0,15.0,79,0.00,,,0.02,1.000000,,2013-01-10 06:52:00,
2013-01-10 07:22:00,22.0,16.0,-100.00,West,272,4.0,13.0,76,0.00,,,0.02,1.000000,,2013-01-10 07:22:00,
2013-01-10 07:32:00,22.0,16.0,-100.00,West,272,4.0,13.0,76,0.00,,,0.02,1.000000,,2013-01-10 07:32:00,
2013-01-10 07:42:00,22.0,16.0,-100.00,West,272,4.0,13.0,76,0.00,,,0.02,1.000000,,2013-01-10 07:42:00,
2013-01-10 07:52:00,22.0,16.0,-100.00,West,272,4.0,13.0,76,0.00,,,0.02,1.000000,,2013-01-10 07:52:00,
2013-01-10 08:22:00,21.0,16.0,-100.00,SSW,200,3.0,5.0,82,0.00,,,0.02,1.000000,,2013-01-10 08:22:00,
2013-01-10 08:32:00,21.0,16.0,-100.00,SSW,200,3.0,5.0,82,0.00,,,0.02,1.000000,,2013-01-10 08:32:00,
2013-01-10 08:42:00,21.0,16.0,-100.00,SSW,200,3.0,5.0,82,0.00,,,0.02,1.000000,,2013-01-10 08:42:00,
2013-01-10 08:52:00,21.0,16.0,-100.00,SSW,200,3.0,5.0,82,0.00,,,0.02,1.000000,,2013-01-10 08:52:00,
2013-01-10 09:22:00,18.0,15.0,-100.00,East,96,1.0,5.0,87,0.00,,,0.02,1.000000,,2013-01-10 09:22:00,
2013-01-10 09:32:00,18.0,15.0,-100.00,East,96,1.0,5.0,87,0.00,,,0.02,1.000000,,2013-01-10 09:32:00,
2013-01-10 09:42:00,18.0,15.0,-100.00,East,96,1.0,5.0,87,0.00,,,0.02,1.000000,,2013-01-10 09:42:00,
2013-01-10 09:52:00,18.0,15.0,-100.00,East,96,1.0,5.0,87,0.00,,,0.02,1.000000,,2013-01-10 09:52:00,
2013-01-10 10:22:00,18.0,16.0,-100.00,ESE,118,1.0,4.0,92,0.00,,,0.02,1.000000,,2013-01-10 10:22:00,
2013-01-10 10:32:00,18.0,16.0,-100.00,ESE,118,1.0,4.0,92,0.00,,,0.02,1.000000,,2013-01-10 10:32:00,
2013-01-10 10:42:00,18.0,16.0,-100.00,ESE,118,1.0,4.0,92,0.00,,,0.02,1.000000,,2013-01-10 10:42:00,
2013-01-10 10:52:00,18.0,16.0,-100.00,ESE,118,1.0,4.0,92,0.00,,,0.02,1.000000,,2013-01-10 10:52:00,
2013-01-10 11:22:00,19.0,17.0,-100.00,South,178,3.0,6.0,91,0.00,,,0.02,1.000000,,2013-01-10 11:22:00,
2013-01-10 11:32:00,19.0,17.0,-100.00,South,178,3.0,6.0,91,0.00,,,0.02,1.000000,,2013-01-10 11:32:00,
2013-01-10 11:42:00,19.0,17.0,-100.00,South,178,3.0,6.0,91,0.00,,,0.02,1.000000,,2013-01-10 11:42:00,
2013-01-10 11:52:00,19.0,17.0,-100.00,South,178,3.0,6.0,91,0.00,,,0.02,1.000000,,2013-01-10 11:52:00,
2013-01-10 14:22:00,19.0,15.0,-100.00,South,184,2.0,4.0,84,-99.99,,,0.02,1.000000,,2013-01-10 14:22:00,
2013-01-10 14:32:00,19.0,15.0,-100.00,South,184,2.0,4.0,84,-99.99,,,0.02,1.000000,,2013-01-10 14:32:00,
2013-01-10 14:43:00,19.0,15.0,-100.00,South,184,2.0,4.0,84,-99.99,,,0.02,1.000000,,2013-01-10 14:43:00,
2013-01-10 14:52:00,19.0,15.0,-100.00,South,184,2.0,4.0,84,-99.99,,,0.02,1.000000,,2013-01-10 14:52:00,
2013-01-10 15:22:00,18.0,14.0,-100.00,SSW,194,3.0,6.0,85,0.00,,,0.02,1.000000,,2013-01-10 15:22:00,
2013-01-10 15:32:00,18.0,14.0,-100.00,SSW,194,3.0,6.0,85,0.00,,,0.02,1.000000,,2013-01-10 15:32:00,
2013-01-10 15:43:00,18.0,14.0,-100.00,SSW,194,3.0,6.0,85,0.00,,,0.02,1.000000,,2013-01-10 15:43:00,
2013-01-10 15:52:00,18.0,14.0,-100.00,SSW,194,3.0,6.0,85,0.00,,,0.02,1.000000,,2013-01-10 15:52:00,
2013-01-10 16:22:00,19.0,15.0,-100.00,SSW,196,4.0,7.0,84,0.00,,,0.02,5.000000,,2013-01-10 16:22:00,
2013-01-10 16:33:00,19.0,15.0,-100.00,SSW,196,4.0,7.0,84,0.00,,,0.02,5.000000,,2013-01-10 16:33:00,
2013-01-10 16:42:00,19.0,15.0,-100.00,SSW,196,4.0,7.0,84,0.00,,,0.02,5.000000,,2013-01-10 16:42:00,
2013-01-10 16:52:00,19.0,15.0,-100.00,SSW,196,4.0,7.0,84,0.00,,,0.02,5.000000,,2013-01-10 16:52:00,
2013-01-10 17:22:00,18.0,14.0,-100.00,ESE,103,1.0,7.0,84,0.00,,,0.02,40.000000,,2013-01-10 17:22:00,
2013-01-10 17:33:00,18.0,14.0,-100.00,ESE,103,1.0,7.0,84,0.00,,,0.02,40.000000,,2013-01-10 17:33:00,
2013-01-10 17:42:00,18.0,14.0,-100.00,ESE,103,1.0,7.0,84,0.00,,,0.02,40.000000,,2013-01-10 17:42:00,
2013-01-10 17:53:00,18.0,14.0,-100.00,ESE,103,1.0,7.0,84,0.00,,,0.02,40.000000,,2013-01-10 17:53:00,
2013-01-10 18:22:00,24.0,18.0,-100.00,SSW,194,4.0,7.0,76,0.00,,,0.02,168.000000,,2013-01-10 18:22:00,
2013-01-10 18:33:00,24.0,18.0,-100.00,SSW,194,4.0,7.0,76,0.00,,,0.02,168.000000,,2013-01-10 18:33:00,
2013-01-10 18:43:00,24.0,18.0,-100.00,SSW,194,4.0,7.0,76,0.00,,,0.02,168.000000,,2013-01-10 18:43:00,
2013-01-10 18:52:00,24.0,18.0,-100.00,SSW,194,4.0,7.0,76,0.00,,,0.02,168.000000,,2013-01-10 18:52:00,
2013-01-10 19:23:00,26.0,19.0,-100.00,SSW,207,5.0,8.0,75,0.00,,,0.02,158.000000,,2013-01-10 19:23:00,
2013-01-10 19:32:00,26.0,19.0,-100.00,SSW,207,5.0,8.0,75,0.00,,,0.02,158.000000,,2013-01-10 19:32:00,
2013-01-10 19:43:00,26.0,19.0,-100.00,SSW,207,5.0,8.0,75,0.00,,,0.02,158.000000,,2013-01-10 19:43:00,
2013-01-10 19:52:00,26.0,19.0,-100.00,SSW,207,5.0,8.0,75,0.00,,,0.02,158.000000,,2013-01-10 19:52:00,
2013-01-10 20:23:00,31.0,18.0,-100.00,SW,235,7.0,12.0,59,0.01,,,-99.99,403.000000,,2013-01-10 20:23:00,
2013-01-10 20:32:00,31.0,18.0,-100.00,SW,235,7.0,12.0,59,0.01,,,-99.99,403.000000,,2013-01-10 20:32:00,
2013-01-10 20:42:00,31.0,18.0,-100.00,SW,235,7.0,12.0,59,0.01,,,-99.99,403.000000,,2013-01-10 20:42:00,
2013-01-10 20:53:00,31.0,18.0,-100.00,SW,235,7.0,12.0,59,0.01,,,-99.99,403.000000,,2013-01-10 20:53:00,
2013-01-10 21:23:00,28.0,18.0,-100.00,West,259,14.0,22.0,65,0.00,,,0.01,346.000000,,2013-01-10 21:23:00,
2013-01-10 21:33:00,28.0,18.0,-100.00,West,259,14.0,22.0,65,0.00,,,0.01,346.000000,,2013-01-10 21:33:00,
2013-01-10 21:42:00,28.0,18.0,-100.00,West,259,14.0,22.0,65,0.00,,,0.01,346.000000,,2013-01-10 21:42:00,
2013-01-10 21:52:00,28.0,18.0,-100.00,West,259,14.0,22.0,65,0.00,,,0.01,346.000000,,2013-01-10 21:52:00,
2013-01-10 22:24:00,31.0,20.0,-100.00,WSW,243,9.0,17.0,64,0.00,,,0.01,360.000000,,2013-01-10 22:24:00,
2013-01-10 22:32:00,31.0,20.0,-100.00,WSW,243,9.0,17.0,64,0.00,,,0.01,360.000000,,2013-01-10 22:32:00,
2013-01-10 22:43:00,31.0,20.0,-100.00,WSW,243,9.0,17.0,64,0.00,,,0.01,360.000000,,2013-01-10 22:43:00,
2013-01-10 23:22:00,30.0,17.0,-100.00,NW,309,10.0,16.0,58,0.00,,,0.01,451.000000,,2013-01-10 23:22:00,
2013-01-10 23:32:00,30.0,17.0,-100.00,NW,309,10.0,16.0,58,0.00,,,0.01,451.000000,,2013-01-10 23:32:00,
2013-01-10 23:42:00,30.0,17.0,-100.00,NW,309,10.0,16.0,58,0.00,,,0.01,451.000000,,2013-01-10 23:42:00,
2013-01-10 23:52:00,30.0,17.0,-100.00,NW,309,10.0,16.0,58,0.00,,,0.01,451.000000,,2013-01-10 23:52:00,